Regional Weather Roundup
Issued by NWS

Home | Current Version | Previous Version | Graphics & Text | Print | Product List | Glossary On
Versions: 1 2 3 4 5 6 7 8 9 10 11 12 13 14 15 16 17 18 19 20 21 22 23 24 25 26 27 28 29 30 31 32 33 34 35 36 37 38 39 40 41 42 43 44 45 46 47 48 49 50
000
ASUS43 KLMK 261510
RWRKY
KENTUCKY REGIONAL WEATHER ROUNDUP
NATIONAL WEATHER SERVICE LOUISVILLE KY
1100 AM EDT WED APR 26 2017

NOTE "FAIR" INDICATES FEW OR NO CLOUDS BELOW 12,000 FEET
WITH NO SIGNIFICANT WEATHER AND/OR OBSTRUCTIONS TO VISIBILITY.

KYZ001>023-026-027-061>063-070>075-261600-
WESTERN AND SOUTH CENTRAL KENTUCKY

CITY           SKY/WX    TMP DP  RH WIND       PRES   REMARKS
PADUCAH        SUNNY     74  60  61 S9G22     29.60S
HENDERSON      SUNNY     73  61  65 S16G23    29.61F
OWENSBORO      SUNNY     73  62  68 S14       29.63F
HOPKINSVILLE   SUNNY     74  60  62 S9        29.66F
BOWLING GREEN  CLOUDY    74  62  66 S13       29.71F
GLASGOW        SUNNY     72  58  62 SW10      29.73S
$$

KYZ024-025-028>034-038-045-046-053-261600-
NORTH CENTRAL KENTUCKY

CITY           SKY/WX    TMP DP  RH WIND       PRES   REMARKS
LOUISVILLE/SDF CLOUDY    75  60  59 S13       29.67F
LOUISVILLE/LOU MOSUNNY   74  61  63 VRB7G16   29.68F
FORT KNOX      MOSUNNY   73  60  65 S13       29.66F
$$

KYZ035>037-039>044-047>052-055>060-089>105-261600-
NORTHEAST KENTUCKY

CITY           SKY/WX    TMP DP  RH WIND       PRES   REMARKS
LEXINGTON      SUNNY     72  58  61 S12       29.76S
COVINGTON      CLOUDY    71  59  65 S13       29.69F
FRANKFORT      CLOUDY    73  57  57 S6        29.71F
$$

KYZ054-064>069-076>088-106>120-261600-
SOUTHEAST KENTUCKY

CITY           SKY/WX    TMP DP  RH WIND       PRES   REMARKS
JACKSON        SUNNY     70  57  63 VRB3      29.81F
LONDON         SUNNY     71  55  56 SW10G18   29.80F
SOMERSET       SUNNY     68  55  64 S3        29.80S
MIDDLESBORO    SUNNY     69  58  66 CALM      29.83F
MONTICELLO     SUNNY     73  59  61 W18G24    29.80S
$$





USA.gov is the U.S. government's official web portal to all federal, state and local government web resources and services.